Regional Weather Roundup
Issued by NWS

Home | Current Version | Previous Version | Graphics & Text | Print | Product List | Glossary On
Versions: 1 2 3 4 5 6 7 8 9 10 11 12 13 14 15 16 17 18 19 20 21 22 23 24 25 26 27 28 29 30 31 32 33 34 35 36 37 38 39 40 41 42 43 44 45 46 47 48 49 50
000
ASUS45 KBOU 251107
RWRCO

WEATHER ROUNDUP FOR COLORADO
NATIONAL WEATHER SERVICE DENVER/BOULDER CO
400 AM MST SUN JAN 25 2015

NOTE: "FAIR" INDICATES FEW OR NO CLOUDS BELOW 12000 FEET WITH NO
SIGNIFICANT WEATHER AND/OR OBSTRUCTIONS TO VISIBILITY.

COZ001>005-013-030-031-251200-
...NORTHWEST COLORADO...

CITY           SKY/WX    TMP DP  RH WIND       PRES   REMARKS
CRAIG          PTCLDY    12   9  87 CALM      30.35F
HAYDEN         CLOUDY    27  18  69 NE3       30.33F
MEEKER         PTCLDY    11   6  81 CALM      30.37S
MOUNT WERNER   NOT AVBL
STEAMBOAT SPGS CLOUDY    29  19  67 E6        30.32F WCI  23
WALDEN         CLEAR     27  19  74 SW5       30.25S WCI  21
$$

COZ006>008-011-251200-
...WEST CENTRAL VALLEYS...

CITY           SKY/WX    TMP DP  RH WIND       PRES   REMARKS
GRAND JUNCTION MOCLDY    24  16  71 SE9       30.38S WCI  14
MONTROSE       PTCLDY    19  13  77 SE8       30.41S WCI   9
EAGLE          PTCLDY    21  18  86 E5        30.38F WCI  15
RIFLE          PTCLDY    21  14  74 CALM      30.41R
DELTA          PTCLDY    22  16  76 NW5       30.42R WCI  16
NUCLA          PTCLDY    23  14  68 E5        30.38F WCI  17
$$

COZ017>023-064>068-251200-
...SOUTHWEST COLORADO...

CITY           SKY/WX    TMP DP  RH WIND       PRES   REMARKS
DURANGO        MOCLDY    18  14  84 CALM      30.26S
CORTEZ         CLEAR     18  14  84 E7        30.27F WCI   9
PAGOSA SPRINGS MOCLDY    13  12  96 CALM      30.25S
TELLURIDE      PTCLDY    26  14  60 SE5       30.38S WCI  21
WOLF CREEK PAS NOT AVBL
$$

COZ009-010-012-014-032>034-037-058>063-251200-
...CENTRAL COLORADO...

CITY           SKY/WX    TMP DP  RH WIND       PRES   REMARKS
ASPEN          CLOUDY    28  18  66 S7        30.36S WCI  21
BUENA VISTA    CLEAR     30  19  63 N10       30.24S WCI  21
COPPER MTN     CLOUDY    23  18  80 W30       30.31S HAZE    WCI   5
BERTHOUD PASS  HVY SNOW  14  10  85 MISG      30.21F VSB<1/4
COTTONWOOD PAS CLEAR     34  18  51 W20G31    30.26S WCI  22
GUNNISON       PTCLDY    -8 -31  31 CALM      30.42R
KREMMLING      CLOUDY    30  21  69 CALM      30.32R
LEADVILLE      CLOUDY    25  19  78 N21G33    30.31F WCI  11
MONARCH PASS   MOCLDY    14  12  92 MISG      30.39S
SALIDA         CLEAR     37  19  47 W9G18     30.32S
SUNLIGHT       CLOUDY    27  25  93 W3          N/A
WILKERSON PASS PTCLDY    27  12  54 MISG      30.21R
$$

COZ069>075-251200-
...SAN LUIS VALLEY/SANGRE DE CRISTO MOUNTAINS...

CITY           SKY/WX    TMP DP  RH WIND       PRES   REMARKS
ALAMOSA        MOCLDY     8   5  87 W9        30.27F WCI  -5
LA VETA PASS   NOT AVBL
SAGUACHE       PTCLDY    32  19  59 N12G20    30.29S WCI  23
$$

COZ035-036-038>040-251200-
...NORTHERN COLORADO FRONT RANGE...

CITY           SKY/WX    TMP DP  RH WIND       PRES   REMARKS
DENVER INTL AP PTCLDY    27  24  89 S13       30.13S WCI  16
DMNS CITY PARK   N/A     46  22  39 W13G26    30.11F
AURORA         PTCLDY    31  24  76 CALM      30.13S
FRONT RANGE AP NOT AVBL
ERIE MUNI ARPT CLEAR     25  24  94 N3        30.12S
BOULDER MUN AP CLEAR     30  28  93 NW3       30.12R
CENTENNIAL     PTCLDY    29  24  82 SW5       30.13S WCI  24
BROOMFIELD     CLEAR     45  23  42 W16G24    30.12S
FORT COLLINS   CLEAR     30  25  80 S6        30.15R WCI  24
LONGMONT       CLEAR     26  24  89 CALM      30.15R
$$

COZ041-046-047-076>085-087-088-251200-
...PIKES PEAK/PALMER DIVIDE AND SOUTHERN FOOTHILLS...

CITY           SKY/WX    TMP DP  RH WIND       PRES   REMARKS
COLO. SPRINGS  CLEAR     31  23  72 S3        30.15R
A. F. ACADEMY  CLEAR     26  19  75 N9        30.13R WCI  16
ELLICOTT       CLEAR    N/A N/A N/A W12       30.13R
FALCON         CLEAR     32  23  68 NW10      30.14S WCI  24
FORT CARSON    CLEAR     27  23  84 S7        30.13R WCI  19
LIMON          CLEAR     32  25  75 NW15      30.13R WCI  22
MONUMENT HILL  CLEAR     23  21  93 W8        30.13S WCI  14
TRINIDAD       PTCLDY    30  25  81 S8        30.17F WCI  22
$$

COZ042>045-048>051-090-091-251200-
...NORTHEAST COLORADO...

CITY           SKY/WX    TMP DP  RH WIND       PRES   REMARKS
GREELEY ARPT   CLEAR     28  21  74 W6        30.13R WCI  22
AKRON          CLEAR     33  25  72 N15       30.09S WCI  23
BURLINGTON     CLEAR     37  23  56 NW18      30.09R
WRAY           CLEAR     39  26  61 NW18G24   30.08S
STERLING       CLEAR     37  30  75 NE7       30.10S
HOLYOKE        CLEAR     41  27  56 NW18G25   30.07S
FORT MORGAN    CLEAR     35  26  71 N15       30.13S WCI  25
$$

COZ086-089-092>099-251200-
...SOUTHEAST COLORADO...

CITY           SKY/WX    TMP DP  RH WIND       PRES   REMARKS
PUEBLO         CLEAR     25  22  88 CALM      30.16S
LA JUNTA       CLEAR     34  26  72 W12       30.15F WCI  25
LAMAR          MOCLDY    37  26  64 W9        30.09R
SPRINGFIELD      N/A     34  27  75 NW18      30.10S WCI  23
$$



USA.gov is the U.S. government's official web portal to all federal, state and local government web resources and services.